Tracking 31027 objects as of 19-Jul-2025
HD Live streaming from Space Station
objects crossing your sky now

DELTA 1 DEB

Track DELTA 1 DEB now!
10-day predictions


NORAD ID: 42091
Int'l Code: 1968-114T
Perigee: 1,456.3 km
Apogee: 1,510.8 km
Inclination: 101.4 °
Period: 115.5 minutes
Semi major axis: 7854 km
RCS: Unknown
Launch date: December 15, 1968
Source: United States (US)
Launch site: AIR FORCE WESTERN TEST RANGE (AFWTR)

Note: This is SATELLITE DEBRIS
Your satellite tracking list
SPACEBEE-134
Track 1 satellite(s)




NASA's NSSDC Master Catalog

Two Line Element Set (TLE):
1 42091U 68114T   25197.78265140  .00000037  00000-0  54017-3 0  9993
2 42091 101.4410 184.3928 0034722 228.9941 254.8135 12.47157356530307
Source of the keplerian elements: AFSPC